Location: Caltech
(34.1382°N, 118.1253°W)
Time: 13:49:12
(UTC-07:00)

Cosmos 1626 - Visible Passes

Search period start: 22 October 2017 00:00
Search period end: 01 November 2017 00:00
Orbit: 496 x 499 km, 82.5° (Epoch: 21 October)

Date Brightness Start Highest point End Pass type
(mag) Time Alt. Az. Time Alt. Az. Time Alt. Az.
22 Oct 5.5 06:20:15 10° SE 06:22:27 15° E 06:24:41 10° NE visible
22 Oct 5.6 19:26:51 10° NW 19:28:55 14° W 19:30:59 10° WSW visible
23 Oct 6.1 06:01:25 10° E 06:01:56 10° E 06:02:26 10° ENE visible
23 Oct 5.1 19:05:30 10° NW 19:08:21 21° W 19:11:12 10° SW visible
24 Oct 4.3 18:44:27 10° NNW 18:47:47 31° W 18:51:05 10° SSW visible
26 Oct 2.7 06:31:10 10° S 06:34:50 62° E 06:38:31 10° NNE visible
27 Oct 3.7 06:10:44 10° SSE 06:14:13 40° E 06:17:42 10° NNE visible
28 Oct 4.5 05:50:28 10° SSE 05:53:36 26° E 05:56:46 10° NNE visible
29 Oct 5.1 05:30:26 10° SE 05:33:01 18° E 05:35:37 10° NE visible
29 Oct 5.7 18:37:59 10° WNW 18:39:28 12° W 18:40:56 10° WSW visible
30 Oct 5.6 05:10:52 10° ESE 05:12:27 12° E 05:14:03 10° ENE visible
31 Oct 2.4 06:23:11 10° SSW 06:26:44 43° W 06:30:18 10° N visible
